www.pogodaiklimat.ru
Время
и дата
12:54 26.11
13:54 26.11
14:54 26.11
15:54 26.11
16:54 26.11
17:54 26.11
18:54 26.11
19:54 26.11
20:54 26.11
21:54 26.11
22:54 26.11
23:54 26.11
00:54 27.11
01:54 27.11
02:54 27.11
03:54 27.11
04:54 27.11
05:54 27.11
06:54 27.11
07:54 27.11
08:54 27.11
09:54 27.11
10:54 27.11
11:54 27.11
12:54 27.11
13:54 27.11
14:54 27.11
15:54 27.11
16:54 27.11
17:54 27.11
18:54 27.11
19:54 27.11
20:54 27.11
21:54 27.11
22:54 27.11
23:54 27.11
00:54 28.11
01:54 28.11
02:54 28.11
03:54 28.11
04:54 28.11
05:54 28.11
06:54 28.11
07:54 28.11
08:54 28.11
09:54 28.11
10:54 28.11
11:54 28.11
Ветер
(напр.,м/с)
Видим. Явления Облачность Т
(С)
Тd
(С)
f
(%)
Тe
(С)
Тes
(С)
Комфортность P
(гПа)
Po
(гПа)
Тmin
(С)
Tmax
(С)
R
(мм)
R24
(мм)
S
(см)
нст 2 8 км мгла ясно +19.4 -2.2 23 +20 +27 1019.5 1001.6
ЮЗ 2 8 км мгла ясно +19.4 -2.2 23 +20 +26 1018.6 1001.0
З 2 8 км мгла ясно +20.0 -2.8 21 +20 +25 1018.2 1000.3
СЗ 3 8 км мгла ясно +19.4 -2.2 23 +20 +21 1018.0 1000.3 +13.3 +20.6
СЗ 3 8 км мгла ясно +16.7 -1.1 30 +17 +17 1018.4 1000.6
СВ 3 10 км мгла ясно +15.0 -0.6 34 +15 +15 1018.9 1001.0
штиль 0 8 км мгла ясно +13.3 -0.6 38 +13 +13 1019.2 1001.3
ЮВ 3 8 км мгла ясно +11.7 -0.6 43 +10 +10 1019.8 1002.0
В 2 10 км мгла ясно +13.3 -1.1 37 +13 +13 1020.0 1002.3
В 2 10 км мгла ясно +9.4 -1.7 46 +8 +8 1020.2 1002.3 +9.4 +19.4
штиль 0 8 км мгла ясно +9.4 -1.1 48 +9 +9 1020.3 1002.6
С 2 10 км мгла ясно +7.2 -2.2 51 +6 +6 1020.5 1002.6
штиль 0 10 км мгла ясно +7.2 -2.2 51 +7 +7 1020.4 1002.6
штиль 0 8 км мгла ясно +7.2 -1.7 53 +7 +7 1020.3 1002.6
В 2 8 км мгла ясно +6.1 -1.7 57 +4 +4 1020.1 1002.3
ЮВ 3 8 км мгла ясно +5.6 -1.7 59 +3 +3 1020.0 1002.3 +5.0 +11.1
В 3 10 км мгла ясно +7.2 -1.7 53 +5 +5 1019.4 1001.6
штиль 0 10 км мгла ясно +6.1 -2.8 53 +6 +6 1020.0 1002.0
В 2 10 км мгла ясно +7.8 -3.9 43 +6 +6 1020.3 1002.3
штиль 0 10 км мгла ясно +7.2 -2.2 51 +7 +7 1020.7 1002.6
Ю 2 8 км мгла ясно +10.0 -2.2 42 +9 +10 1020.9 1003.0
Ю 2 6 км мгла ясно +11.7 0.0 44 +11 +13 1021.3 1003.3 +4.4 +11.7
штиль 0 6 км мгла ясно +13.9 +0.6 40 +14 +20 1020.6 1002.6
штиль 0 6 км мгла ясно +16.7 0.0 32 +17 +25 1019.6 1002.0
штиль 0 6 км мгла ясно +16.7 0.0 32 +17 +26 1018.5 1000.6
ЮЗ 2 6 км мгла ясно +17.8 0.0 30 +18 +24 1017.7 1000.0
штиль 0 6 км мгла ясно +18.3 0.0 29 +18 +24 1017.3 999.6
штиль 0 6 км мгла ясно +17.8 0.0 30 +18 +21 1017.0 999.3 +11.7 +18.9
С 2 10 км мгла ясно +16.1 +0.6 35 +16 +17 1016.9 999.3
С 2 8 км мгла ясно +13.9 0.0 38 +14 +14 1017.1 999.3
штиль 0 10 км мгла ясно +12.8 0.0 41 +13 +13 1017.2 999.3
В 3 10 км мгла ясно +13.3 +0.6 42 +12 +12 1016.9 999.0
Ю 2 8 км мгла ясно +11.7 +0.6 46 +11 +11 1016.9 999.0
В 3 8 км мгла ясно +11.1 +0.6 48 +10 +10 1016.4 998.6 +11.1 +17.8
штиль 0 10 км мгла ясно +11.1 +0.6 48 +11 +11 1015.8 998.0
В 3 10 км мгла ясно +11.7 0.0 44 +10 +10 1015.2 997.6
В 2 10 км мгла ясно +12.2 0.0 43 +12 +12 1014.6 997.0
СВ 3 10 км мгла ясно +9.4 0.0 52 +8 +8 1014.5 997.0
СВ 2 8 км мгла ясно +8.9 0.0 54 +8 +8 1014.4 996.6
С 2 8 км мгла ясно +7.8 +1.1 63 +6 +6 1014.4 996.6 +7.8 +12.2
штиль 0 8 км мгла ясно +6.7 0.0 62 +6 +6 1014.3 996.6
СВ 2 8 км мгла ясно +6.1 +0.6 68 +4 +4 1014.4 996.6
штиль 0 8 км мгла ясно +6.1 0.0 65 +6 +6 1014.4 996.6
В 2 6 км мгла ясно +7.8 -0.6 55 +6 +6 1014.6 997.0
Ю 2 6 км мгла ясно +11.1 +0.6 48 +10 +11 1014.5 997.0
Ю 3 6 км мгла ясно +14.4 +0.6 39 +14 +16 1014.5 996.6 +5.0 +14.4
ЮЗ 2 6 км мгла ясно +15.0 +0.6 37 +15 +19 1014.2 996.6
СЗ 3 6 км мгла ясно +16.7 +0.6 34 +17 +21 1013.2 995.6
Местоположение метеостанции Meadows Field Airport: широта 35.4344 долгота -119.0542 высота над уровнем моря 149 м.
В архиве по умолчанию представлена погода в Бейкерсфилде за последние 1-2 суток. Обновление информации о фактической погоде в базе происходит ежечасно! Архивные данные за месяц целиком и за предыдущие месяцы Вы можете получить, выбрав интересующий диапазон дат из раскрывающегося списка и нажав кнопку "Ввод!".
Внимание! Архив погоды МЕТАР в базе сайта по станциям, не включенным в климатический монитор, хранится не более 60 дней. Нет смысла пытаться выбрать более раннюю дату.
*Определитесь, кто Вы:
Внимание! Время в таблицах - местное (без учета летнего времени). Для получения всемирного времени необходимо вычесть поправку, которая равна -8 ч.
Смотрите также архив погоды в соседних городах и на ближайших метеорологических станциях:
Партнеры нашего сайта:      
Пояснения к столбцам:
  • Ветер - указаны скорость ветра в м/с - средняя за 10 мин, порывы в срок и между сроками (в фигурных скобках) и направление, откуда дует ветер: С - северный,
  • СВ - северо-восточный, В - восточный, ЮВ - юго-восточный, Ю - южный, ЮЗ - юго-западный, З - западный, СЗ - северо-западный.
  • Видимость - горизонтальная дальность видимости в метрах или километрах. При видимости от 1 до 10 км при отсутствии осадков обычно наблюдается дымка, при ухудшении видимости до 1 км и менее - туман. В сухую погоду видимость может ухудшаться дымом, пылью или мглою.
  • Явления - указаны атмосферные явления, наблюдавшиеся в срок или в последний час перед сроком; фигурными скобками обозначены явления, наблюдавшиеся между сроками (за 1-3 часа до срока); квадратными скобками обозначены град или гололедные отложения с указанием их диаметра в мм.
  • Облачность - указаны через наклонную черту общая и нижняя облачность в баллах и высота нижней границы облаков в метрах; квадратными скобками обозначены формы облаков: Ci - перистые, Cs - перисто-слоистые, Cc - перисто-кучевые, Ac - высококучевые, As - высокослоистые, Sc - слоисто-кучевые, Ns - слоисто-дождевые, Cu - кучевые, Cb - кучево-дождевые. Подробнее классификацию облаков см. в Атласе облаков (PDF).
  • T - Температура воздуха - температура, измеренная на высоте 2 м над землей.
  • Td - Температура точки росы - температура, при понижении до которой содержащийся в воздухе водяной пар достигнет насыщения.
  • f - Относительная влажность воздуха - влажноcть воздуха, измеренная на высоте 2 м над землей.
  • Te - Эффективная температура - температура, которую ощущает одетый по сезону человек в тени. Характеристика душности погоды. При расчете учитывается влияние влажности воздуха и скорости ветра на теплоощущения человека.
  • Tes - Эффективная температура на солнце - температура, которую ощущает человек, с поправкой на солнечный нагрев. Характеристика знойности погоды. Зависит от высоты солнца над горизонтом, облачности и скорости ветра. Ночью, в пасмурную погоду, а также при ветре 12 м/с и более поправка равна нулю.
  • P - Атмосферное давление - приведенное к уровню моря атмосферное давление.
  • Po - Атмосферное давление - измеренное на уровне метеостанции атмосферное давление.
  • Tmin - Минимальная температура - минимум температуры воздуха на высоте 2 м над землей.
  • Tmax - Максимальная температура - максимум температуры воздуха на высоте 2 м над землей.
  • R - Количество осадков - Количество выпавших осадков за период времени, мм. При наведении курсора мыши на число - период времени, за который выпало указанное количество осадков.
  • R24 - Количество осадков - Количество выпавших осадков за 24 часа, мм.
  • S - Снежный покров - Высота снежного покрова, см. При наведении курсора мыши на число - состояние снежного покрова и степень покрытия местности в баллах.